Location: Bremen
(53.0793°N, 8.8017°E)
Time: 07:07:57
(UTC+01:00)

Tiros 1 - Pass Details

Date: 03 December 2021
Orbit: 629 x 664 km, 48.4° (Epoch: 25 January)

Event Time Altitude Azimuth Distance (km) Brightness Sun altitude
Rises 19:22:28 0° 217° (SW) 2,918 11.0 -27.6°
Reaches altitude 10° 19:25:07 10° 203° (SSW) 2,017 9.9 -28.0°
Enters shadow 19:26:16 15° 192° (SSW) 1,694 9.4 -28.2°
